SCOUT X-4 DEB, 732

Orbit data source: Space-Track

SCOUT X-4 DEB, 732 is space debris in LEO originally from a launch on Thu, 19 Dec 1963 UTC launched from the Air Force Western Test Range (AFWTR). Debris objects in space refer to the collection of defunct objects orbiting the Earth. Examples of debris include non-operational satellites, rocket bodies, and fragments generated from explosions, collisions, or faulty payload assembly.

Loading next visibility...
Identifier
732, 1963-053H
Orbit
LEO
Last TLE update
13 hours ago
Origin
Manufacturer
Unknown
Mission
Spacecraft
Bus & Motor
Unknown
Mass
Unknown
Launch date (UTC)
1963-12-19 (61 years ago)
Launch vehicle
Unknown
Launch site
Air Force Western Test Range (AFWTR)
Object type
Payload
Rocket body
Debris
Shape & HBR
Unknown
Radar Cross Section
Small (<0.1 m²)

Expand to show TLE details & history

TLE from 13 hours ago
0 SCOUT X-4 DEB
1 00732U 63053H   25128.69764049  .00013674  00000-0  41915-2 0  9995
2 00732  78.5597  13.2844 0435926   8.8068 352.0419 13.98526256918443
Epoch: 2025-05-08T16:44Z
Definitive object data (Epoch: 2025-05-08T16:44:36.138Z)
Latitude
0.00001°
Longitude
-104.63058°
Altitude
587.748 km
Speed
7.728 km/s
True Right ascension
00h 53m 08s
True Declination
0° 00' 00"
Sunlit
Object was in daylight at TLE epoch
Visualization TLE readout
Latitude
-31.20003°
Longitude
81.6955°
Altitude
1,197.293 km
Speed
7.11 km/s
Apparent Right ascension
11h 36m 31s
Apparent Declination
-77° 05' 50"
Sunlit
Object is in full shadow
Visualization observer readout
Local Sidereal Time
13:55:22
Azimuth
188.359° SSW
Elevation
-28.991°
Doppler factor
1
Orbital elements
Apogee altitude
1,213.34 km
Perigee altitude
579.123 km
Semi-major axis
7,274.369 km
Eccentricity
0.0435926
Inclination
78.5597°
RAAN
13.2844°
Arg. of periapsis
8.8068°
True anomaly
351.31097°
Mean anomaly
352.0419°
Eccentric anomaly
351.6805°
Mean motion
3.49824 °/min
BSTAR
0.0041915
Orbital period
102.91 mins
Loading maneuver chart data...
Loading SW <> Apogee altitude chart data...
Loading historical data...
Loading historical data...
Loading historical data...
Loading historical data...
Loading historical data...
Loading historical data...
Loading historical data...

SCOUT X-4 DEB Visibility forecast

Observer location: undefined°, undefined°

Span
Click to sort rows by Start time (UTC) header in descending order
Start Az.
Max El. time (UTC)
Max El. Az.
Max El.
End time (UTC)
End Az.
8 mins2025-05-09 16:53:38.939Z174.249° S2025-05-09 16:57:38.939Z80.082° E38.746°2025-05-09 17:01:38.939Z22.008° NNE
4 mins2025-05-10 01:56:38.939Z46.427° ENE2025-05-10 01:58:38.939Z65.202° ENE12.847°2025-05-10 02:00:38.939Z82.563° E
12 mins2025-05-10 03:38:38.939Z353.251° N2025-05-10 03:43:38.939Z105.816° ESE43.895°2025-05-10 03:50:38.939Z162.732° S
7 mins2025-05-10 05:24:38.939Z295.695° NW2025-05-10 05:26:38.939Z275.336° WNW17.665°2025-05-10 05:31:38.939Z231.085° WSW
|